FW2602 Weather Reports


Display with metric or nautical units.
time (UTC)temp
F
wind
direction
speed
MPH
gust
MPH
rain 1hr
in
rain 24hr
in
rain mn
in
humidity
%
barometer
mb
20200402064051 31 316 0.0 4.0 0.00 0.00 0.00 81 1010.4
20200402063621 31 311 1.0 4.0 0.00 0.00 0.00 81 1010.6
20200402063050 31 299 0.0 4.0 0.00 0.00 0.00 81 1010.5
20200402062552 31 311 0.0 4.0 0.00 0.00 0.00 80 1010.5
20200402062046 31 283 2.0 3.0 0.00 0.00 0.00 80 1010.6
20200402061643 31 338 1.0 4.0 0.00 0.00 0.00 80 1010.5
20200402061101 31 311 0.0 4.0 0.00 0.00 0.00 80 1010.5
20200402060543 31 315 0.0 3.0 0.00 0.00 0.00 80 1010.6
20200402060116 32 315 1.0 3.0 0.00 0.00 0.00 80 1010.6
20200402055544 32 283 0.0 3.0 0.00 0.00 0.00 80 1010.6
20200402055103 32 1 0.0 4.0 0.00 0.00 0.00 80 1010.6
20200402054628 32 140 0.0 6.0 0.00 0.00 0.00 80 1010.6
20200402054039 32 43 0.0 2.0 0.00 0.00 0.00 79 1010.6
20200402053539 32 94 0.0 2.0 0.00 0.00 0.00 79 1010.6
20200402053139 32 105 0.0 2.0 0.00 0.00 0.00 79 1010.6
20200402052538 32 303 0.0 3.0 0.00 0.00 0.00 79 1010.7
20200402052046 33 236 0.0 5.0 0.00 0.00 0.00 78 1010.6
20200402051623 33 312 0.0 6.0 0.00 0.00 0.00 78 1010.7
20200402051037 33 300 2.0 6.0 0.00 0.00 0.00 78 1010.7
20200402050533 33 303 1.0 4.0 0.00 0.00 0.00 78 1010.7
20200402050125 33 342 0.0 3.0 0.00 0.00 0.00 78 1010.7
20200402045530 34 301 0.0 5.0 0.00 0.00 0.00 77 1010.7
20200402045029 34 311 1.0 5.0 0.00 0.00 0.00 76 1010.7
20200402044617 34 345 0.0 3.0 0.00 0.00 0.00 76 1010.7
20200402044027 35 309 0.0 4.0 0.00 0.00 0.00 75 1010.6
20200402043526 35 214 0.0 5.0 0.00 0.00 0.00 75 1010.7
20200402043038 35 333 1.0 4.0 0.00 0.00 0.00 75 1010.7
20200402042525 35 301 0.0 2.0 0.00 0.00 0.00 76 1010.7
20200402042030 36 305 0.0 3.0 0.00 0.00 0.00 75 1010.7
20200402041529 36 207 0.0 4.0 0.00 0.00 0.00 76 1010.8
20200402041022 36 273 1.0 4.0 0.00 0.00 0.00 76 1010.7
20200402040534 36 333 0.0 3.0 0.00 0.00 0.00 75 1010.7
20200402040028 36 222 0.0 3.0 0.00 0.00 0.00 75 1010.7
20200402035521 36 117 0.0 3.0 0.00 0.00 0.00 75 1010.8
20200402035029 36 6 1.0 5.0 0.00 0.00 0.00 75 1010.8
20200402034533 36 326 1.0 5.0 0.00 0.00 0.00 74 1010.8
20200402034020 36 325 1.0 5.0 0.00 0.00 0.00 74 1010.9
20200402033520 36 78 1.0 6.0 0.00 0.00 0.00 74 1010.9
20200402033051 36 122 0.0 7.0 0.00 0.00 0.00 74 1010.9
20200402032520 36 82 2.0 6.0 0.00 0.00 0.00 73 1010.8
20200402032020 36 18 0.0 3.0 0.00 0.00 0.00 73 1010.9
20200402031533 36 316 0.0 1.0 0.00 0.00 0.00 73 1010.8
20200402031019 37 351 0.0 2.0 0.00 0.00 0.00 73 1010.8
20200402030518 37 129 0.0 2.0 0.00 0.00 0.00 72 1010.8
20200402030028 37 304 0.0 2.0 0.00 0.00 0.00 72 1010.7
20200402025518 37 98 0.0 3.0 0.00 0.00 0.00 72 1010.8
20200402025018 37 117 0.0 4.0 0.00 0.00 0.00 72 1010.8
20200402024541 37 94 1.0 4.0 0.00 0.00 0.00 73 1010.8
20200402024017 37 326 0.0 1.0 0.00 0.00 0.00 72 1010.8
20200402023528 37 326 0.0 3.0 0.00 0.00 0.00 72 1010.8
20200402023026 37 326 0.0 3.0 0.00 0.00 0.00 71 1010.8
20200402022518 37 143 0.0 0.0 0.00 0.00 0.00 71 1010.9
20200402022033 37 143 0.0 0.0 0.00 0.00 0.00 71 1010.9
20200402021517 37 143 0.0 0.0 0.00 0.00 0.00 70 1010.9
20200402021017 37 143 0.0 0.0 0.00 0.00 0.00 70 1010.8
20200402020517 37 145 0.0 5.0 0.00 0.00 0.00 69 1010.8
20200402020038 38 146 0.0 5.0 0.00 0.00 0.00 68 1010.9
20200402015513 38 337 0.0 3.0 0.00 0.00 0.00 68 1010.9
20200402015020 38 200 0.0 6.0 0.00 0.00 0.00 68 1010.9
20200402014607 38 304 1.0 7.0 0.00 0.00 0.00 66 1010.9
20200402014024 38 152 1.0 7.0 0.00 0.00 0.00 66 1010.8
20200402013524 39 316 1.0 8.0 0.00 0.00 0.00 65 1010.8
20200402013012 39 330 1.0 8.0 0.00 0.00 0.00 65 1010.7
20200402012521 39 34 1.0 12.0 0.00 0.00 0.00 65 1010.7
20200402012014 39 270 5.0 12.0 0.00 0.00 0.00 64 1010.6
20200402011516 40 290 2.0 10.0 0.00 0.00 0.00 64 1010.6
20200402011031 40 82 2.0 16.0 0.00 0.00 0.00 64 1010.5
20200402010530 40 328 5.0 16.0 0.00 0.00 0.00 64 1010.5
20200402010008 40 288 3.0 8.0 0.00 0.00 0.00 63 1010.4
20200402005505 40 323 2.0 13.0 0.00 0.00 0.00 63 1010.3
20200402005020 40 290 6.0 13.0 0.00 0.00 0.00 63 1010.2
20200402004518 41 297 2.0 10.0 0.00 0.00 0.00 63 1010.2
20200402004023 41 304 1.0 10.0 0.00 0.00 0.00 62 1010.3
20200402003522 41 274 3.0 9.0 0.00 0.00 0.00 61 1010.3
20200402003022 41 325 3.0 15.0 0.00 0.00 0.00 60 1010.2
20200402002511 41 312 6.0 15.0 0.00 0.00 0.00 59 1010.1
20200402002036 41 297 5.0 10.0 0.00 0.00 0.00 59 1010.1
20200402001522 41 328 5.0 10.0 0.00 0.00 0.00 59 1010.0
20200402001029 41 315 5.0 12.0 0.00 0.00 0.00 58 1009.9
20200402000525 41 331 5.0 10.0 0.00 0.00 0.00 58 1009.8
20200402000205 41 297 5.0 10.0 0.00 0.00 0.00 57 1009.8
20200401235552 42 291 6.0 11.0 0.00 0.00 0.00 56 1009.7
20200401235007 42 284 6.0 11.0 0.00 0.00 0.00 54 1009.7
20200401234537 42 277 5.0 10.0 0.00 0.00 0.00 53 1009.7
20200401234025 42 292 4.0 8.0 0.00 0.00 0.00 53 1009.7
20200401233520 43 298 5.0 8.0 0.00 0.00 0.00 53 1009.7
20200401233051 43 304 2.0 11.0 0.00 0.00 0.00 52 1009.7
20200401232532 43 287 5.0 9.0 0.00 0.00 0.00 52 1009.6
20200401232008 44 215 2.0 16.0 0.00 0.00 0.00 52 1009.6
20200401231537 44 301 6.0 16.0 0.00 0.00 0.00 51 1009.6
20200401231016 44 329 5.0 12.0 0.00 0.00 0.00 50 1009.5
20200401230516 45 292 3.0 11.0 0.00 0.00 0.00 49 1009.5
20200401225532 44 302 4.0 13.0 0.00 0.00 0.00 49 1009.4
20200401225017 44 295 7.0 16.0 0.00 0.00 0.00 47 1009.4
20200401224521 44 332 9.0 16.0 0.00 0.00 0.00 47 1009.4
20200401224024 44 290 4.0 14.0 0.00 0.00 0.00 47 1009.4
20200401223521 44 309 9.0 14.0 0.00 0.00 0.00 48 1009.4
20200401223110 45 287 4.0 11.0 0.00 0.00 0.00 49 1009.4
20200401222519 45 296 5.0 11.0 0.00 0.00 0.00 48 1009.5
20200401222013 45 311 6.0 14.0 0.00 0.00 0.00 48 1009.4
20200401221514 46 297 3.0 12.0 0.00 0.00 0.00 49 1009.4
20200401221018 45 262 2.0 10.0 0.00 0.00 0.00 50 1009.3
20200401220533 45 305 4.0 10.0 0.00 0.00 0.00 49 1009.3
20200401220005 45 311 5.0 8.0 0.00 0.00 0.00 49 1009.3
20200401215504 45 316 1.0 6.0 0.00 0.00 0.00 51 1009.3
20200401215011 45 302 1.0 6.0 0.00 0.00 0.00 50 1009.3
20200401214517 46 285 0.0 5.0 0.00 0.00 0.00 51 1009.4
20200401214021 46 294 2.0 9.0 0.00 0.00 0.00 52 1009.3
20200401213522 45 289 4.0 9.0 0.00 0.00 0.00 50 1009.3
20200401213011 46 340 4.0 9.0 0.00 0.00 0.00 49 1009.3
20200401212513 46 116 0.0 11.0 0.00 0.00 0.00 53 1009.3
20200401212017 46 307 5.0 11.0 0.00 0.00 0.00 50 1009.3
20200401211608 47 318 5.0 9.0 0.00 0.00 0.00 51 1009.2
20200401211020 46 114 1.0 8.0 0.00 0.00 0.00 51 1009.2
20200401210521 46 298 1.0 8.0 0.00 0.00 0.00 51 1009.3
20200401210008 46 300 2.0 8.0 0.00 0.00 0.00 51 1009.3
20200401205507 46 120 2.0 9.0 0.00 0.00 0.00 52 1009.3
20200401205014 46 309 5.0 14.0 0.00 0.00 0.00 50 1009.2
20200401204529 46 308 9.0 14.0 0.00 0.00 0.00 50 1009.2
20200401204023 47 295 4.0 10.0 0.00 0.00 0.00 49 1009.3
20200401203523 47 312 4.0 10.0 0.00 0.00 0.00 53 1009.3
20200401203026 47 260 3.0 6.0 0.00 0.00 0.00 51 1009.4
20200401202514 47 95 0.0 6.0 0.00 0.00 0.00 51 1009.4
20200401202023 47 119 1.0 9.0 0.00 0.00 0.00 50 1009.4
20200401201530 47 318 5.0 9.0 0.00 0.00 0.00 48 1009.4
20200401201014 47 318 4.0 8.0 0.00 0.00 0.00 48 1009.5
20200401200508 47 349 4.0 8.0 0.00 0.00 0.00 50 1009.6
20200401200034 46 291 1.0 8.0 0.00 0.00 0.00 58 1009.7
20200401195514 45 162 2.0 7.0 0.00 0.00 0.00 55 1009.7
20200401195023 45 88 2.0 7.0 0.00 0.00 0.00 55 1009.7
20200401194541 45 46 1.0 7.0 0.00 0.00 0.00 54 1009.7
20200401194010 45 274 2.0 7.0 0.00 0.00 0.00 52 1009.6
20200401193509 45 71 1.0 10.0 0.00 0.00 0.00 54 1009.7
20200401193039 45 304 5.0 12.0 0.00 0.00 0.00 53 1009.7
20200401192526 45 304 5.0 12.0 0.00 0.00 0.00 54 1009.7
20200401192005 45 93 0.0 7.0 0.00 0.00 0.00 57 1009.8
20200401191517 44 259 2.0 8.0 0.00 0.00 0.00 55 1009.8
20200401191012 44 296 3.0 8.0 0.00 0.00 0.00 55 1009.9
20200401190515 44 301 2.0 8.0 0.00 0.00 0.00 57 1010.0
20200401190038 44 127 0.0 7.0 0.00 0.00 0.00 57 1010.0
20200401185517 44 120 0.0 9.0 0.00 0.00 0.00 57 1010.0
20200401185009 44 296 5.0 10.0 0.00 0.00 0.00 56 1010.0
20200401184511 44 328 3.0 10.0 0.00 0.00 0.00 56 1010.1
20200401184013 44 264 4.0 10.0 0.00 0.00 0.00 56 1010.1
20200401183512 44 125 3.0 10.0 0.00 0.00 0.00 55 1010.1
20200401183031 44 301 4.0 10.0 0.00 0.00 0.00 57 1010.1
20200401182539 44 113 1.0 8.0 0.00 0.00 0.00 58 1010.1
20200401182017 44 303 5.0 8.0 0.00 0.00 0.00 55 1010.2
20200401181523 44 315 1.0 6.0 0.00 0.00 0.00 57 1010.2
20200401181016 44 155 1.0 5.0 0.00 0.00 0.00 56 1010.2
20200401180515 44 105 0.0 8.0 0.00 0.00 0.00 58 1010.3
20200401180054 44 103 1.0 8.0 0.00 0.00 0.00 59 1010.6
20200401175517 43 295 1.0 5.0 0.00 0.00 0.00 58 1010.5
20200401175013 43 328 0.0 4.0 0.00 0.00 0.00 59 1010.5
20200401174509 43 335 1.0 6.0 0.00 0.00 0.00 58 1010.6
20200401174013 43 141 1.0 8.0 0.00 0.00 0.00 57 1010.7
20200401173512 44 315 4.0 8.0 0.00 0.00 0.00 61 1010.6
20200401173105 43 333 0.0 6.0 0.00 0.00 0.00 59 1010.7
20200401172527 44 134 2.0 6.0 0.00 0.00 0.00 60 1010.8
20200401172024 43 316 2.0 6.0 0.00 0.00 0.00 61 1010.9
20200401171601 44 335 2.0 5.0 0.00 0.00 0.00 61 1010.9
20200401171010 44 88 1.0 8.0 0.00 0.00 0.00 61 1010.9
20200401170511 44 148 1.0 8.0 0.00 0.00 0.00 63 1010.9
20200401170051 45 311 3.0 7.0 0.00 0.00 0.00 64 1010.9
20200401165522 44 333 2.0 7.0 0.00 0.00 0.00 64 1011.0
20200401165008 44 316 2.0 6.0 0.00 0.00 0.00 60 1011.0
20200401164510 45 354 0.0 5.0 0.00 0.00 0.00 59 1011.1
20200401164018 45 55 2.0 6.0 0.00 0.00 0.00 61 1011.1
20200401163520 45 134 1.0 6.0 0.00 0.00 0.00 65 1011.1
20200401163026 44 89 2.0 6.0 0.00 0.00 0.00 62 1011.2
20200401162531 44 302 2.0 6.0 0.00 0.00 0.00 63 1011.3
20200401162038 43 352 1.0 6.0 0.00 0.00 0.00 66 1011.3
20200401161518 42 103 1.0 4.0 0.00 0.00 0.00 68 1011.2
20200401161021 42 96 0.0 3.0 0.00 0.00 0.00 68 1011.3
20200401160520 41 314 0.0 4.0 0.00 0.00 0.00 67 1011.4
20200401160031 41 56 0.0 4.0 0.00 0.00 0.00 69 1011.5
20200401155509 41 253 1.0 4.0 0.00 0.00 0.00 67 1011.5
20200401155017 41 103 0.0 6.0 0.00 0.00 0.00 70 1011.7
20200401154522 41 91 1.0 7.0 0.00 0.00 0.00 71 1011.8
20200401154027 40 304 2.0 4.0 0.00 0.00 0.00 70 1011.7
20200401153524 41 290 0.0 3.0 0.00 0.00 0.00 69 1011.7
20200401153116 40 97 0.0 4.0 0.00 0.00 0.00 70 1011.8
20200401152525 40 108 1.0 4.0 0.00 0.00 0.00 69 1011.9
20200401152009 40 131 0.0 3.0 0.00 0.00 0.00 71 1011.9
20200401151511 39 305 0.0 3.0 0.00 0.00 0.00 71 1012.0
20200401151019 39 73 1.0 3.0 0.00 0.00 0.00 72 1012.1
20200401150518 39 338 0.0 5.0 0.00 0.00 0.00 73 1012.1
20200401150102 38 326 1.0 4.0 0.00 0.00 0.00 73 1012.1
20200401145532 38 318 2.0 5.0 0.00 0.00 0.00 74 1012.1
20200401145007 37 301 2.0 6.0 0.00 0.00 0.00 75 1012.1
20200401144511 38 304 3.0 5.0 0.00 0.00 0.00 76 1012.2
20200401144016 37 255 0.0 5.0 0.00 0.00 0.00 76 1012.2
20200401143519 37 280 1.0 6.0 0.00 0.00 0.00 76 1012.2
20200401143101 36 331 3.0 6.0 0.00 0.00 0.00 75 1012.3
20200401142522 36 82 0.0 2.0 0.00 0.00 0.00 75 1012.3
20200401142009 36 229 0.0 5.0 0.00 0.00 0.00 76 1012.3
20200401141514 35 315 3.0 5.0 0.00 0.00 0.00 78 1012.4
20200401141017 35 303 2.0 5.0 0.00 0.00 0.00 78 1012.4
20200401140523 35 311 0.0 3.0 0.00 0.00 0.00 79 1012.4
20200401140050 34 314 0.0 4.0 0.00 0.00 0.00 78 1012.4
20200401135528 34 319 0.0 4.0 0.00 0.00 0.00 79 1012.5
20200401135027 34 300 2.0 4.0 0.00 0.00 0.00 79 1012.4
20200401134514 33 286 1.0 3.0 0.00 0.00 0.00 79 1012.3
20200401134031 33 319 0.0 3.0 0.00 0.00 0.00 80 1012.3
20200401133520 33 297 1.0 3.0 0.00 0.00 0.00 80 1012.3
20200401133040 33 111 0.0 2.0 0.00 0.00 0.00 81 1012.3
20200401132509 33 298 0.0 3.0 0.00 0.00 0.00 81 1012.3
20200401132018 32 285 1.0 3.0 0.00 0.00 0.00 80 1012.3
20200401131528 32 298 1.0 2.0 0.00 0.00 0.00 82 1012.3
20200401131008 32 321 0.0 1.0 0.00 0.00 0.00 84 1012.3
20200401130503 31 102 0.0 1.0 0.00 0.00 0.00 85 1012.4
20200401130014 31 101 0.0 1.0 0.00 0.00 0.00 86 1012.4
20200401125523 31 101 0.0 0.0 0.00 0.00 0.00 88 1012.4
20200401125036 30 102 0.0 0.0 0.00 0.00 0.00 89 1012.4
20200401124523 30 101 0.0 0.0 0.00 0.00 0.00 91 1012.4
20200401124012 29 101 0.0 0.0 0.00 0.00 0.00 91 1012.5
20200401123507 29 102 0.0 0.0 0.00 0.00 0.00 91 1012.4
20200401123058 29 102 0.0 0.0 0.00 0.00 0.00 91 1012.5
20200401122040 28 102 0.0 0.0 0.00 0.00 0.00 90 1012.4
20200401121559 28 102 0.0 0.0 0.00 0.00 0.00 90 1012.4
20200401121040 28 101 0.0 0.0 0.00 0.00 0.00 90 1012.4
20200401120550 28 102 0.0 0.0 0.00 0.00 0.00 89 1012.5
20200401120133 28 102 0.0 0.0 0.00 0.00 0.00 89 1012.5
20200401115643 28 102 0.0 0.0 0.00 0.00 0.00 89 1012.5
20200401115050 28 102 0.0 0.0 0.00 0.00 0.00 89 1012.5
20200401114645 28 102 0.0 0.0 0.00 0.00 0.00 89 1012.4
20200401114044 28 102 0.0 0.0 0.00 0.00 0.00 89 1012.4
20200401113538 28 102 0.0 0.0 0.00 0.00 0.00 89 1012.5
20200401113053 28 102 0.0 0.0 0.00 0.00 0.00 88 1012.4
20200401112538 28 101 0.0 0.0 0.00 0.00 0.00 88 1012.4
20200401112042 28 102 0.0 0.0 0.00 0.00 0.00 88 1012.4
20200401111618 28 101 0.0 1.0 0.00 0.00 0.00 88 1012.3
20200401111038 28 105 0.0 0.0 0.00 0.00 0.00 88 1012.3
20200401110536 28 104 0.0 1.0 0.00 0.00 0.00 88 1012.3
20200401110106 28 104 0.0 1.0 0.00 0.00 0.00 88 1012.3
20200401105534 28 105 0.0 1.0 0.00 0.00 0.00 88 1012.2
20200401105034 28 105 0.0 1.0 0.00 0.00 0.00 88 1012.3
20200401104601 28 104 0.0 1.0 0.00 0.00 0.00 88 1012.3
20200401104042 28 105 0.0 1.0 0.00 0.00 0.00 88 1012.3
20200401103536 28 104 0.0 1.0 0.00 0.00 0.00 88 1012.2
20200401103116 28 105 0.0 1.0 0.00 0.00 0.00 88 1012.2
20200401102536 28 104 0.0 0.0 0.00 0.00 0.00 87 1012.1
20200401102031 28 104 0.0 0.0 0.00 0.00 0.00 87 1012.2
20200401101647 29 104 0.0 0.0 0.00 0.00 0.00 87 1012.2
20200401101032 29 104 0.0 1.0 0.00 0.00 0.00 87 1012.2
20200401100530 29 105 0.0 1.0 0.00 0.00 0.00 86 1012.2
20200401100046 28 104 0.0 0.0 0.00 0.00 0.00 86 1012.2
20200401095529 28 105 0.0 0.0 0.00 0.01 0.00 86 1012.3
20200401095029 28 104 0.0 1.0 0.00 0.01 0.00 86 1012.2
20200401094532 28 104 0.0 1.0 0.00 0.01 0.00 86 1012.2
20200401094027 28 103 0.0 1.0 0.00 0.01 0.00 85 1012.2
20200401093528 29 103 0.0 0.0 0.00 0.01 0.00 85 1012.2
20200401093052 29 103 0.0 1.0 0.00 0.01 0.00 85 1012.2
20200401092526 29 103 0.0 1.0 0.00 0.01 0.00 86 1012.1
20200401092048 29 103 0.0 0.0 0.00 0.01 0.00 86 1012.1
20200401091023 29 103 0.0 1.0 0.00 0.01 0.00 84 1012.1
20200401090521 30 104 0.0 1.0 0.00 0.01 0.00 83 1012.1
20200401090026 30 103 0.0 1.0 0.00 0.01 0.00 82 1012.1
20200401085527 30 109 0.0 1.0 0.00 0.03 0.00 82 1012.2
20200401085020 31 110 0.0 1.0 0.00 0.03 0.00 81 1012.2
20200401084543 31 60 0.0 1.0 0.00 0.03 0.00 80 1012.4
20200401084019 31 97 0.0 0.0 0.00 0.03 0.00 80 1012.4
20200401083518 31 97 0.0 1.0 0.00 0.03 0.00 79 1012.4
20200401083027 32 97 0.0 3.0 0.00 0.03 0.00 78 1012.5
20200401082542 31 111 1.0 3.0 0.00 0.03 0.00 78 1012.5
20200401082019 31 84 0.0 4.0 0.00 0.03 0.00 78 1012.5
20200401081616 31 110 0.0 4.0 0.00 0.03 0.00 79 1012.6
20200401081018 31 108 0.0 2.0 0.00 0.03 0.00 81 1012.7
20200401080521 31 98 0.0 3.0 0.00 0.03 0.00 81 1012.6
20200401080028 31 93 0.0 3.0 0.00 0.03 0.00 82 1012.6
20200401075514 30 90 0.0 2.0 0.00 0.06 0.00 83 1012.7
20200401075013 30 110 0.0 5.0 0.00 0.06 0.00 84 1012.8
20200401074513 30 101 1.0 5.0 0.00 0.06 0.00 86 1012.7
20200401074010 30 99 0.0 1.0 0.00 0.06 0.00 87 1012.8
20200401073509 30 98 0.0 1.0 0.00 0.06 0.00 87 1012.8
20200401073020 30 104 0.0 1.0 0.00 0.06 0.00 87 1012.7
20200401072509 30 104 0.0 1.0 0.00 0.06 0.00 87 1012.8
20200401072034 30 104 0.0 1.0 0.00 0.06 0.00 87 1012.8
20200401071521 30 104 0.0 1.0 0.00 0.06 0.00 87 1012.9
20200401071004 30 104 0.0 1.0 0.00 0.06 0.00 86 1013.1
20200401070013 30 104 0.0 1.0 0.00 0.06 0.00 85 1013.2
20200401065501 31 104 0.0 1.0 0.00 0.10 0.00 85 1013.2
20200401065102 31 104 0.0 3.0 0.00 0.10 0.00 85 1013.2